QPF
0.00 0.01 0.02 0.02 0.02 0.01 0.01 0.01 0.01 0.01 0.01 0.00 0.01 0.01 0.01 0.00 0.00 0.00 0.03 0.06 0.06 0.05 0.05 0.04 0.04 0.03 0.02 0.02 0.03 0.03 0.04 0.06 0.04 0.03 0.03 0.03 0.02 0.03 0.04 0.05 0.07 0.15 0.24
0.00 0.00 0.02 0.03 0.02 0.01 0.01 0.00 0.01 0.01 0.00 0.00 0.01 0.01 0.01 0.00 0.01 0.01 0.02 0.04 0.05 0.08 0.09 0.07 0.06 0.05 0.04 0.04 0.05 0.04 0.04 0.06 0.05 0.02 0.02 0.03 0.02 0.03 0.03 0.04 0.06 0.07 0.13
0.00 0.00 0.01 0.01 0.01 0.01 0.01 0.00 0.01 0.00 0.00 0.01 0.01 0.01 0.01 0.01 0.02 0.03 0.02 0.02 0.03 0.06 0.09 0.12 0.11 0.08 0.06 0.05 0.05 0.06 0.05 0.04 0.02 0.02 0.03 0.03 0.03 0.05 0.05 0.05 0.05 0.05 0.08
0.00 0.00 0.01 0.01 0.01 0.01 0.01 0.01 0.00 0.00 0.01 0.01 0.01 0.00 0.00 0.00 0.01 0.02 0.01 0.01 0.01 0.02 0.05 0.09 0.12 0.14 0.14 0.10 0.08 0.07 0.06 0.04 0.02 0.02 0.02 0.02 0.03 0.04 0.04 0.03 0.03 0.04 0.04
0.01 0.01 0.01 0.01 0.01 0.01 0.01 0.01 0.01 0.00 0.00 0.00 0.00 0.00 0.00 0.00 0.00 0.00 0.00 0.00 0.00 0.01 0.01 0.02 0.06 0.12 0.13 0.09 0.05 0.06 0.07 0.06 0.05 0.06 0.03 0.02 0.03 0.03 0.03 0.03 0.03 0.02 0.03
0.01 0.01 0.01 0.01 0.01 0.01 0.01 0.01 0.01 0.00 0.01 0.01 0.00 0.00 0.00 0.00 0.00 0.00 0.01 0.00 0.00 0.00 0.01 0.01 0.02 0.04 0.03 0.03 0.03 0.05 0.07 0.05 0.06 0.07 0.06 0.05 0.04 0.04 0.04 0.05 0.04 0.03 0.05
0.01 0.01 0.01 0.01 0.01 0.01 0.01 0.01 0.01 0.01 0.01 0.01 0.00 0.00 0.00 0.00 0.00 0.00 0.00 0.00 0.00 0.00 0.01 0.02 0.02 0.01 0.01 0.01 0.01 0.03 0.04 0.04 0.04 0.05 0.07 0.07 0.06 0.05 0.05 0.05 0.04 0.04 0.07
0.00 0.00 0.01 0.01 0.01 0.01 0.02 0.03 0.02 0.01 0.01 0.01 0.00 0.00 0.00 0.00 0.00 0.00 0.00 0.01 0.00 0.00 0.01 0.01 0.01 0.01 0.00 0.00 0.00 0.01 0.02 0.02 0.03 0.05 0.09 0.10 0.08 0.08 0.07 0.06 0.06 0.07 0.08
0.00 0.00 0.00 0.01 0.01 0.02 0.02 0.02 0.02 0.02 0.01 0.01 0.02 0.01 0.00 0.00 0.00 0.00 0.00 0.01 0.01 0.01 0.01 0.01 0.01 0.01 0.01 0.00 0.00 0.00 0.01 0.01 0.01 0.03 0.05 0.07 0.07 0.08 0.08 0.06 0.06 0.06 0.05
0.00 0.00 0.00 0.00 0.01 0.01 0.02 0.02 0.02 0.02 0.02 0.02 0.02 0.01 0.01 0.00 0.00 0.01 0.00 0.01 0.01 0.01 0.01 0.01 0.01 0.02 0.01 0.01 0.01 0.01 0.02 0.02 0.02 0.02 0.02 0.03 0.04 0.05 0.06 0.04 0.04 0.04 0.03
0.00 0.00 0.00 0.00 0.01 0.01 0.01 0.02 0.02 0.02 0.02 0.02 0.02 0.01 0.01 0.01 0.01 0.01 0.00 0.01 0.01 0.01 0.01 0.02 0.02 0.03 0.04 0.04 0.03 0.03 0.03 0.02 0.02 0.01 0.01 0.02 0.03 0.04 0.04 0.04 0.04 0.04 0.03
0.00 0.00 0.00 0.00 0.00 0.00 0.01 0.01 0.02 0.02 0.02 0.01 0.01 0.01 0.01 0.01 0.01 0.00 0.00 0.00 0.00 0.01 0.01 0.01 0.02 0.04 0.05 0.04 0.04 0.04 0.03 0.01 0.02 0.01 0.01 0.02 0.03 0.03 0.03 0.03 0.04 0.04 0.04
0.00 0.00 0.00 0.00 0.00 0.00 0.00 0.01 0.01 0.02 0.02 0.01 0.01 0.01 0.01 0.00 0.01 0.01 0.00 0.00 0.00 0.00 0.01 0.01 0.01 0.02 0.05 0.05 0.04 0.03 0.02 0.02 0.01 0.01 0.01 0.02 0.02 0.03 0.03 0.03 0.04 0.05 0.05
0.00 0.00 0.00 0.00 0.00 0.00 0.00 0.01 0.01 0.01 0.01 0.01 0.01 0.01 0.01 0.00 0.00 0.01 0.00 0.00 0.00 0.00 0.00 0.01 0.01 0.02 0.03 0.04 0.04 0.04 0.03 0.02 0.02 0.01 0.01 0.01 0.02 0.02 0.03 0.04 0.06 0.07 0.07
0.00 0.00 0.00 0.00 0.01 0.01 0.01 0.01 0.01 0.01 0.01 0.01 0.01 0.01 0.01 0.01 0.01 0.01 0.01 0.00 0.00 0.00 0.01 0.01 0.01 0.01 0.02 0.03 0.03 0.03 0.02 0.02 0.01 0.01 0.01 0.00 0.01 0.01 0.03 0.05 0.06 0.10 0.10
0.01 0.01 0.00 0.01 0.02 0.01 0.00 0.01 0.00 0.00 0.01 0.01 0.02 0.02 0.01 0.01 0.01 0.01 0.01 0.01 0.01 0.01 0.01 0.01 0.01 0.01 0.02 0.03 0.03 0.02 0.02 0.01 0.01 0.01 0.00 0.00 0.00 0.01 0.02 0.03 0.04 0.08 0.12
0.01 0.01 0.01 0.02 0.01 0.01 0.01 0.01 0.01 0.00 0.00 0.01 0.01 0.02 0.02 0.02 0.02 0.01 0.00 0.00 0.01 0.00 0.00 0.00 0.01 0.01 0.01 0.02 0.02 0.02 0.02 0.01 0.01 0.01 0.01 0.01 0.01 0.01 0.02 0.02 0.03 0.06 0.10
0.02 0.01 0.01 0.01 0.01 0.01 0.01 0.02 0.02 0.01 0.01 0.01 0.01 0.01 0.01 0.02 0.02 0.02 0.01 0.00 0.01 0.01 0.00 0.00 0.01 0.00 0.00 0.01 0.02 0.02 0.02 0.01 0.02 0.02 0.02 0.01 0.01 0.02 0.02 0.02 0.03 0.04 0.07
0.02 0.02 0.01 0.01 0.01 0.01 0.01 0.01 0.02 0.01 0.01 0.01 0.01 0.00 0.01 0.01 0.01 0.01 0.01 0.01 0.01 0.01 0.01 0.00 0.01 0.02 0.01 0.01 0.01 0.02 0.02 0.02 0.02 0.02 0.02 0.03 0.02 0.03 0.03 0.04 0.04 0.05 0.05
0.01 0.02 0.01 0.01 0.01 0.01 0.01 0.01 0.02 0.02 0.02 0.02 0.01 0.01 0.01 0.01 0.01 0.01 0.01 0.01 0.01 0.01 0.01 0.00 0.01 0.02 0.02 0.01 0.01 0.02 0.02 0.02 0.01 0.01 0.02 0.03 0.03 0.03 0.05 0.05 0.04 0.05 0.05
0.01 0.01 0.02 0.02 0.02 0.01 0.01 0.02 0.02 0.03 0.02 0.01 0.01 0.01 0.01 0.01 0.02 0.02 0.02 0.02 0.01 0.01 0.01 0.01 0.01 0.03 0.04 0.01 0.01 0.01 0.02 0.02 0.01 0.01 0.01 0.02 0.03 0.04 0.05 0.06 0.05 0.03 0.04
0.02 0.02 0.02 0.02 0.02 0.02 0.03 0.03 0.03 0.02 0.02 0.02 0.02 0.01 0.01 0.01 0.01 0.02 0.02 0.03 0.03 0.02 0.01 0.01 0.01 0.02 0.04 0.02 0.01 0.02 0.01 0.01 0.01 0.01 0.01 0.02 0.03 0.03 0.03 0.04 0.05 0.04 0.03
0.03 0.02 0.02 0.03 0.04 0.03 0.04 0.05 0.04 0.03 0.03 0.03 0.03 0.02 0.01 0.01 0.01 0.01 0.02 0.03 0.03 0.03 0.02 0.02 0.01 0.01 0.03 0.02 0.02 0.02 0.02 0.01 0.01 0.01 0.01 0.02 0.02 0.03 0.03 0.04 0.05 0.06 0.05
0.04 0.03 0.02 0.03 0.03 0.03 0.03 0.05 0.05 0.04 0.03 0.04 0.03 0.03 0.02 0.02 0.02 0.02 0.01 0.02 0.03 0.03 0.03 0.02 0.01 0.01 0.02 0.02 0.03 0.02 0.02 0.02 0.01 0.01 0.01 0.02 0.03 0.04 0.04 0.04 0.05 0.07 0.08
0.06 0.06 0.04 0.03 0.03 0.03 0.03 0.04 0.05 0.04 0.04 0.04 0.03 0.03 0.03 0.01 0.02 0.02 0.01 0.01 0.02 0.03 0.04 0.03 0.02 0.02 0.03 0.04 0.03 0.03 0.02 0.03 0.02 0.01 0.01 0.02 0.03 0.05 0.06 0.06 0.06 0.07 0.07
0.05 0.07 0.07 0.06 0.04 0.03 0.03 0.04 0.05 0.03 0.03 0.03 0.03 0.02 0.02 0.01 0.02 0.03 0.02 0.01 0.01 0.02 0.03 0.03 0.02 0.01 0.03 0.04 0.03 0.02 0.02 0.02 0.03 0.02 0.02 0.02 0.02 0.04 0.05 0.05 0.04 0.04 0.04
MSLP
1013.32 1013.15 1012.93 1012.67 1012.42 1012.20 1012.03 1011.92 1011.85 1011.80 1011.74 1011.65 1011.52 1011.35 1011.16 1010.96 1010.79 1010.64 1010.53 1010.45 1010.39 1010.35 1010.31 1010.28 1010.27 1010.27 1010.30 1010.36 1010.45 1010.57 1010.70 1010.86 1011.03 1011.23 1011.46 1011.73 1012.05 1012.40 1012.77 1013.13 1013.47 1013.76 1013.98
1013.37 1013.16 1012.91 1012.64 1012.39 1012.20 1012.06 1011.99 1011.96 1011.96 1011.94 1011.88 1011.78 1011.62 1011.43 1011.22 1011.00 1010.81 1010.64 1010.50 1010.40 1010.32 1010.26 1010.23 1010.22 1010.24 1010.29 1010.35 1010.43 1010.52 1010.62 1010.73 1010.86 1011.03 1011.23 1011.50 1011.82 1012.19 1012.60 1013.02 1013.42 1013.78 1014.07
1013.43 1013.17 1012.89 1012.61 1012.38 1012.21 1012.11 1012.07 1012.08 1012.12 1012.14 1012.12 1012.04 1011.90 1011.72 1011.49 1011.25 1011.01 1010.79 1010.59 1010.43 1010.30 1010.21 1010.17 1010.16 1010.19 1010.24 1010.31 1010.39 1010.47 1010.54 1010.61 1010.70 1010.82 1010.99 1011.23 1011.54 1011.92 1012.35 1012.81 1013.26 1013.67 1014.03
1013.56 1013.24 1012.92 1012.64 1012.42 1012.26 1012.19 1012.18 1012.21 1012.27 1012.31 1012.32 1012.27 1012.16 1011.98 1011.76 1011.51 1011.24 1010.97 1010.72 1010.51 1010.33 1010.20 1010.13 1010.11 1010.13 1010.19 1010.27 1010.34 1010.41 1010.46 1010.51 1010.55 1010.63 1010.76 1010.96 1011.24 1011.60 1012.02 1012.49 1012.96 1013.41 1013.82
1013.78 1013.40 1013.05 1012.76 1012.53 1012.38 1012.31 1012.30 1012.34 1012.40 1012.44 1012.46 1012.43 1012.34 1012.20 1012.00 1011.76 1011.49 1011.20 1010.92 1010.66 1010.44 1010.27 1010.16 1010.11 1010.12 1010.17 1010.24 1010.32 1010.38 1010.42 1010.44 1010.46 1010.49 1010.57 1010.71 1010.94 1011.26 1011.64 1012.09 1012.56 1013.02 1013.45
1014.10 1013.67 1013.29 1012.98 1012.74 1012.58 1012.49 1012.45 1012.45 1012.47 1012.50 1012.50 1012.48 1012.42 1012.32 1012.17 1011.98 1011.74 1011.48 1011.19 1010.91 1010.65 1010.44 1010.29 1010.20 1010.18 1010.21 1010.27 1010.34 1010.40 1010.44 1010.44 1010.43 1010.42 1010.45 1010.53 1010.69 1010.93 1011.26 1011.65 1012.08 1012.52 1012.95
1014.51 1014.04 1013.63 1013.29 1013.04 1012.84 1012.70 1012.60 1012.54 1012.50 1012.46 1012.44 1012.42 1012.39 1012.34 1012.26 1012.14 1011.97 1011.76 1011.51 1011.24 1010.96 1010.72 1010.52 1010.39 1010.33 1010.32 1010.36 1010.42 1010.48 1010.50 1010.50 1010.46 1010.42 1010.40 1010.42 1010.50 1010.66 1010.90 1011.22 1011.59 1011.99 1012.40
1014.98 1014.47 1014.04 1013.68 1013.39 1013.15 1012.94 1012.76 1012.60 1012.46 1012.35 1012.27 1012.23 1012.22 1012.23 1012.23 1012.21 1012.14 1012.01 1011.82 1011.58 1011.32 1011.05 1010.82 1010.65 1010.54 1010.50 1010.51 1010.55 1010.59 1010.61 1010.59 1010.55 1010.48 1010.41 1010.36 1010.37 1010.45 1010.60 1010.84 1011.14 1011.49 1011.87
1015.45 1014.93 1014.48 1014.11 1013.78 1013.48 1013.19 1012.91 1012.63 1012.37 1012.16 1012.01 1011.93 1011.93 1011.98 1012.07 1012.15 1012.19 1012.16 1012.06 1011.88 1011.64 1011.38 1011.13 1010.92 1010.78 1010.69 1010.67 1010.68 1010.71 1010.72 1010.69 1010.63 1010.54 1010.43 1010.34 1010.28 1010.28 1010.36 1010.51 1010.75 1011.05 1011.39
1015.87 1015.35 1014.90 1014.51 1014.16 1013.80 1013.43 1013.04 1012.64 1012.25 1011.92 1011.68 1011.55 1011.53 1011.60 1011.75 1011.92 1012.06 1012.14 1012.13 1012.03 1011.84 1011.61 1011.36 1011.14 1010.96 1010.85 1010.79 1010.78 1010.79 1010.78 1010.75 1010.67 1010.56 1010.43 1010.29 1010.18 1010.12 1010.13 1010.22 1010.40 1010.66 1010.98
1016.20 1015.69 1015.25 1014.87 1014.49 1014.09 1013.65 1013.16 1012.64 1012.13 1011.68 1011.33 1011.12 1011.05 1011.12 1011.30 1011.52 1011.74 1011.91 1011.99 1011.97 1011.85 1011.66 1011.44 1011.22 1011.04 1010.91 1010.84 1010.81 1010.79 1010.77 1010.72 1010.63 1010.50 1010.34 1010.17 1010.02 1009.91 1009.87 1009.92 1010.06 1010.29 1010.60
1016.40 1015.92 1015.51 1015.13 1014.75 1014.32 1013.83 1013.26 1012.64 1012.02 1011.45 1011.00 1010.69 1010.55 1010.58 1010.73 1010.97 1011.23 1011.46 1011.60 1011.65 1011.61 1011.48 1011.31 1011.13 1010.97 1010.85 1010.78 1010.74 1010.71 1010.67 1010.61 1010.50 1010.34 1010.15 1009.95 1009.76 1009.62 1009.54 1009.56 1009.68 1009.89 1010.19
1016.48 1016.03 1015.64 1015.29 1014.91 1014.48 1013.95 1013.33 1012.65 1011.94 1011.27 1010.71 1010.30 1010.07 1010.01 1010.11 1010.31 1010.57 1010.81 1011.00 1011.10 1011.12 1011.07 1010.97 1010.85 1010.74 1010.66 1010.61 1010.58 1010.55 1010.50 1010.41 1010.27 1010.09 1009.86 1009.62 1009.40 1009.22 1009.12 1009.11 1009.20 1009.40 1009.70
1016.44 1016.01 1015.65 1015.32 1014.96 1014.53 1014.00 1013.37 1012.65 1011.88 1011.14 1010.49 1009.98 1009.64 1009.48 1009.48 1009.61 1009.81 1010.03 1010.23 1010.37 1010.45 1010.47 1010.45 1010.42 1010.39 1010.36 1010.36 1010.35 1010.33 1010.27 1010.17 1010.00 1009.78 1009.51 1009.23 1008.97 1008.75 1008.61 1008.57 1008.64 1008.83 1009.11
1016.29 1015.88 1015.54 1015.22 1014.88 1014.48 1013.96 1013.34 1012.62 1011.84 1011.06 1010.34 1009.74 1009.29 1009.02 1008.90 1008.92 1009.03 1009.20 1009.37 1009.52 1009.65 1009.74 1009.81 1009.88 1009.94 1010.00 1010.06 1010.10 1010.10 1010.05 1009.92 1009.73 1009.47 1009.16 1008.84 1008.53 1008.27 1008.08 1008.00 1008.04 1008.20 1008.45
1016.05 1015.64 1015.30 1015.00 1014.68 1014.29 1013.81 1013.22 1012.53 1011.76 1010.97 1010.22 1009.56 1009.02 1008.64 1008.40 1008.29 1008.30 1008.38 1008.50 1008.64 1008.80 1008.95 1009.11 1009.27 1009.44 1009.60 1009.74 1009.84 1009.88 1009.84 1009.72 1009.51 1009.22 1008.87 1008.51 1008.15 1007.84 1007.61 1007.48 1007.48 1007.58 1007.80
1015.76 1015.32 1014.96 1014.65 1014.34 1013.98 1013.53 1012.99 1012.34 1011.62 1010.85 1010.10 1009.40 1008.80 1008.32 1007.96 1007.74 1007.63 1007.61 1007.67 1007.79 1007.95 1008.15 1008.39 1008.65 1008.91 1009.17 1009.40 1009.58 1009.68 1009.68 1009.57 1009.36 1009.06 1008.69 1008.30 1007.91 1007.56 1007.28 1007.10 1007.04 1007.08 1007.24
1015.42 1014.94 1014.55 1014.21 1013.89 1013.54 1013.12 1012.62 1012.03 1011.35 1010.63 1009.90 1009.20 1008.56 1008.01 1007.57 1007.24 1007.02 1006.91 1006.90 1006.98 1007.14 1007.37 1007.66 1008.00 1008.36 1008.72 1009.04 1009.30 1009.47 1009.53 1009.46 1009.28 1009.00 1008.64 1008.24 1007.84 1007.46 1007.15 1006.92 1006.80 1006.79 1006.87
1015.06 1014.53 1014.09 1013.72 1013.36 1013.00 1012.59 1012.12 1011.57 1010.95 1010.28 1009.58 1008.89 1008.24 1007.65 1007.15 1006.74 1006.44 1006.25 1006.17 1006.21 1006.35 1006.60 1006.93 1007.33 1007.77 1008.21 1008.62 1008.97 1009.22 1009.35 1009.36 1009.23 1009.00 1008.68 1008.31 1007.93 1007.56 1007.23 1006.98 1006.81 1006.74 1006.76
1014.71 1014.14 1013.64 1013.20 1012.81 1012.41 1011.99 1011.52 1010.99 1010.41 1009.78 1009.12 1008.45 1007.81 1007.20 1006.66 1006.20 1005.84 1005.59 1005.46 1005.46 1005.58 1005.82 1006.17 1006.61 1007.11 1007.62 1008.11 1008.54 1008.88 1009.10 1009.20 1009.16 1009.01 1008.77 1008.47 1008.14 1007.81 1007.51 1007.25 1007.07 1006.95 1006.91
1014.40 1013.78 1013.23 1012.74 1012.28 1011.82 1011.36 1010.87 1010.33 1009.75 1009.14 1008.50 1007.86 1007.23 1006.63 1006.08 1005.60 1005.20 1004.91 1004.74 1004.70 1004.80 1005.03 1005.39 1005.85 1006.38 1006.94 1007.50 1008.00 1008.43 1008.74 1008.94 1009.01 1008.97 1008.84 1008.64 1008.40 1008.15 1007.90 1007.68 1007.50 1007.37 1007.30
1014.16 1013.51 1012.91 1012.36 1011.83 1011.30 1010.77 1010.22 1009.64 1009.04 1008.42 1007.79 1007.16 1006.54 1005.95 1005.41 1004.92 1004.52 1004.20 1004.01 1003.94 1004.02 1004.23 1004.58 1005.04 1005.59 1006.18 1006.78 1007.34 1007.84 1008.26 1008.56 1008.75 1008.84 1008.83 1008.76 1008.64 1008.48 1008.32 1008.16 1008.03 1007.92 1007.84
1014.00 1013.35 1012.72 1012.11 1011.51 1010.91 1010.28 1009.65 1009.00 1008.34 1007.68 1007.03 1006.40 1005.79 1005.22 1004.69 1004.22 1003.82 1003.51 1003.31 1003.23 1003.28 1003.47 1003.80 1004.24 1004.78 1005.38 1006.00 1006.61 1007.17 1007.66 1008.06 1008.36 1008.57 1008.70 1008.76 1008.77 1008.74 1008.69 1008.62 1008.55 1008.49 1008.44
1013.95 1013.31 1012.68 1012.03 1011.36 1010.66 1009.94 1009.21 1008.47 1007.73 1007.01 1006.33 1005.68 1005.07 1004.52 1004.01 1003.56 1003.18 1002.88 1002.69 1002.60 1002.64 1002.80 1003.10 1003.51 1004.02 1004.60 1005.22 1005.84 1006.44 1006.98 1007.46 1007.86 1008.18 1008.43 1008.62 1008.76 1008.85 1008.92 1008.96 1008.98 1009.00 1009.00
1014.01 1013.40 1012.76 1012.09 1011.36 1010.58 1009.77 1008.93 1008.08 1007.26 1006.48 1005.75 1005.07 1004.47 1003.92 1003.44 1003.03 1002.68 1002.41 1002.22 1002.13 1002.15 1002.29 1002.55 1002.91 1003.38 1003.92 1004.51 1005.11 1005.71 1006.28 1006.81 1007.27 1007.68 1008.04 1008.33 1008.59 1008.80 1008.99 1009.14 1009.27 1009.37 1009.46
1014.16 1013.59 1012.96 1012.26 1011.49 1010.64 1009.74 1008.81 1007.87 1006.97 1006.12 1005.35 1004.66 1004.05 1003.52 1003.08 1002.70 1002.39 1002.14 1001.97 1001.88 1001.88 1001.98 1002.19 1002.50 1002.90 1003.38 1003.91 1004.48 1005.05 1005.62 1006.16 1006.66 1007.12 1007.55 1007.94 1008.29 1008.60 1008.89 1009.15 1009.39 1009.59 1009.78
Thickness
5717 5716 5715 5715 5715 5714 5714 5713 5712 5712 5712 5712 5712 5711 5710 5711 5711 5712 5712 5713 5713 5714 5715 5715 5716 5716 5717 5718 5719 5720 5721 5722 5723 5724 5725 5726 5726 5727 5728 5728 5728 5729 5731
5714 5712 5711 5710 5709 5709 5709 5709 5708 5707 5707 5707 5706 5706 5706 5706 5707 5707 5707 5707 5708 5708 5709 5710 5711 5711 5712 5713 5714 5715 5716 5717 5718 5719 5720 5721 5721 5722 5723 5724 5724 5724 5726
5709 5707 5706 5705 5704 5704 5704 5704 5703 5702 5702 5701 5701 5702 5702 5702 5702 5702 5702 5702 5702 5703 5704 5705 5706 5706 5707 5708 5708 5709 5711 5712 5713 5714 5715 5716 5716 5717 5718 5719 5719 5720 5721
5705 5703 5702 5701 5701 5700 5700 5699 5697 5696 5695 5695 5695 5696 5697 5697 5697 5697 5697 5697 5697 5697 5698 5699 5700 5701 5701 5702 5703 5704 5705 5706 5707 5708 5709 5710 5711 5712 5713 5714 5714 5715 5716
5700 5699 5697 5697 5696 5696 5695 5695 5692 5691 5690 5690 5691 5691 5692 5692 5693 5693 5692 5692 5692 5692 5693 5693 5694 5695 5695 5696 5697 5698 5700 5701 5702 5703 5704 5705 5706 5707 5708 5709 5709 5711 5712
5696 5695 5693 5692 5692 5691 5689 5689 5687 5687 5686 5686 5687 5686 5686 5687 5688 5688 5688 5687 5687 5687 5687 5688 5688 5688 5689 5690 5692 5693 5694 5695 5696 5697 5699 5700 5701 5702 5703 5703 5704 5705 5707
5691 5690 5688 5687 5686 5685 5684 5683 5683 5681 5680 5681 5679 5677 5679 5681 5681 5682 5682 5682 5682 5682 5682 5683 5683 5683 5683 5685 5686 5687 5688 5690 5691 5692 5694 5695 5696 5697 5697 5698 5699 5700 5701
5686 5685 5684 5682 5681 5680 5679 5679 5678 5675 5674 5675 5673 5669 5667 5669 5673 5676 5676 5676 5677 5677 5677 5678 5678 5678 5678 5679 5680 5681 5682 5684 5685 5687 5688 5689 5690 5691 5692 5693 5694 5695 5696
5682 5681 5679 5678 5676 5675 5674 5673 5672 5671 5668 5669 5669 5666 5661 5658 5661 5666 5669 5670 5671 5671 5672 5672 5673 5673 5673 5674 5674 5675 5677 5678 5680 5681 5683 5684 5685 5686 5687 5688 5689 5689 5690
5677 5676 5675 5673 5672 5671 5669 5668 5668 5667 5665 5663 5663 5664 5662 5660 5656 5656 5660 5663 5665 5665 5666 5667 5667 5667 5668 5668 5669 5670 5671 5673 5674 5675 5677 5678 5679 5680 5681 5682 5683 5684 5685
5673 5671 5670 5668 5667 5665 5664 5663 5662 5662 5660 5658 5658 5657 5657 5655 5654 5651 5650 5653 5656 5658 5660 5661 5661 5662 5662 5663 5664 5665 5666 5667 5668 5669 5670 5671 5673 5674 5675 5676 5677 5678 5679
5667 5667 5665 5664 5662 5660 5659 5658 5657 5656 5655 5654 5653 5653 5651 5650 5648 5647 5645 5645 5646 5650 5653 5655 5656 5657 5657 5658 5659 5659 5661 5662 5662 5663 5663 5664 5666 5667 5668 5669 5670 5672 5673
5662 5661 5661 5659 5658 5656 5655 5653 5652 5650 5650 5648 5647 5647 5646 5646 5645 5643 5641 5639 5640 5643 5646 5648 5649 5651 5651 5652 5653 5654 5655 5656 5656 5656 5657 5658 5659 5660 5661 5662 5664 5665 5666
5660 5659 5657 5656 5654 5652 5650 5648 5646 5645 5644 5643 5643 5641 5640 5640 5640 5640 5638 5635 5633 5634 5637 5640 5643 5645 5646 5646 5647 5647 5648 5649 5649 5650 5650 5651 5652 5653 5654 5655 5656 5658 5659
5658 5655 5654 5651 5649 5647 5645 5643 5641 5639 5638 5637 5636 5635 5634 5634 5634 5634 5634 5633 5630 5628 5629 5633 5635 5638 5640 5640 5641 5641 5642 5642 5643 5643 5643 5643 5644 5645 5646 5647 5648 5650 5651
5654 5651 5649 5647 5645 5642 5640 5637 5635 5633 5632 5630 5630 5629 5628 5628 5628 5628 5628 5627 5627 5625 5624 5627 5629 5632 5633 5634 5634 5635 5635 5635 5635 5636 5636 5636 5636 5636 5638 5639 5640 5641 5643
5650 5647 5645 5642 5639 5637 5634 5631 5629 5627 5626 5624 5624 5623 5622 5622 5621 5621 5621 5620 5620 5619 5618 5620 5622 5624 5625 5626 5627 5627 5628 5628 5628 5629 5629 5628 5629 5629 5630 5631 5633 5634 5635
5646 5644 5641 5638 5635 5632 5629 5626 5624 5622 5620 5619 5617 5616 5616 5616 5614 5613 5613 5613 5613 5613 5612 5612 5614 5615 5617 5618 5619 5620 5620 5621 5621 5621 5621 5621 5622 5623 5624 5625 5626 5627 5628
5642 5639 5636 5633 5631 5628 5625 5622 5619 5617 5615 5614 5612 5611 5610 5609 5607 5606 5606 5606 5606 5607 5606 5605 5606 5608 5609 5610 5610 5611 5613 5613 5614 5614 5614 5615 5615 5616 5617 5618 5619 5620 5621
5636 5633 5631 5628 5626 5624 5620 5617 5614 5612 5610 5608 5607 5606 5605 5604 5603 5602 5601 5600 5600 5599 5598 5598 5599 5600 5601 5602 5602 5602 5603 5604 5605 5607 5607 5608 5609 5609 5610 5611 5612 5614 5615
5631 5628 5625 5622 5620 5618 5615 5612 5609 5607 5604 5602 5601 5600 5600 5600 5600 5598 5597 5595 5594 5592 5591 5591 5591 5592 5593 5593 5595 5595 5595 5596 5597 5599 5600 5601 5602 5602 5603 5604 5605 5607 5608
5625 5621 5619 5616 5614 5613 5611 5608 5604 5600 5598 5596 5594 5594 5594 5593 5594 5593 5593 5592 5591 5588 5586 5585 5585 5585 5587 5588 5588 5589 5588 5587 5588 5592 5592 5594 5595 5596 5597 5598 5599 5600 5601
5618 5615 5612 5610 5608 5607 5605 5602 5599 5594 5592 5590 5588 5587 5588 5588 5586 5586 5586 5586 5585 5585 5585 5582 5581 5581 5582 5583 5582 5581 5581 5581 5582 5585 5585 5586 5588 5588 5591 5592 5593 5594 5595
5612 5609 5606 5604 5601 5600 5599 5597 5593 5588 5585 5584 5582 5581 5580 5580 5580 5578 5578 5577 5576 5577 5578 5578 5579 5579 5579 5579 5579 5578 5577 5576 5576 5577 5578 5578 5580 5582 5584 5585 5586 5587 5588
5606 5604 5601 5598 5595 5594 5593 5591 5587 5582 5579 5577 5576 5575 5574 5573 5574 5572 5570 5569 5569 5570 5572 5572 5573 5573 5574 5574 5573 5571 5569 5567 5567 5569 5570 5570 5572 5573 5575 5578 5579 5580 5580
5600 5598 5595 5592 5590 5588 5587 5585 5581 5577 5573 5572 5570 5570 5569 5568 5568 5566 5563 5562 5561 5563 5564 5564 5564 5565 5566 5566 5566 5566 5564 5562 5560 5561 5563 5563 5564 5564 5566 5569 5571 5572 5573